DW5963 Weather Reports


time (UTC)temp
C
wind
direction
speed
KPH
gust
KPH
rain 1hr
cm
rain 24hr
cm
rain mn
cm
humidity
%
barometer
mb
20260905145531 22 107 16.1 0.0 0.00 0.00 0.00 79 1008.7
20260905145031 22 107 12.9 0.0 0.00 0.00 0.00 79 1008.7
20260905144032 22 360 11.3 0.0 0.00 0.00 0.00 80 1008.7
20260905143534 21 360 11.3 0.0 0.00 0.00 0.00 80 1008.8
20260905143030 21 360 11.3 0.0 0.00 0.00 0.00 81 1008.8
20260905142530 21 360 11.3 0.0 0.00 0.00 0.00 81 1008.9
20260905142029 21 360 11.3 0.0 0.00 0.00 0.00 82 1008.9
20260905141529 21 360 11.3 0.0 0.00 0.00 0.00 82 1009.0
20260905141027 21 360 11.3 0.0 0.00 0.00 0.00 83 1009.0
20260905140530 21 360 11.3 0.0 0.00 0.00 0.00 83 1008.9
20260905140026 20 360 11.3 0.0 0.00 0.00 0.00 84 1008.7
20260905135526 20 360 12.9 0.0 0.00 0.00 0.00 84 1008.6
20260905135025 20 360 11.3 0.0 0.00 0.00 0.00 85 1008.6
20260905134026 20 360 12.9 0.0 0.00 0.00 0.00 86 1008.5
20260905133524 20 360 12.9 0.0 0.00 0.00 0.00 87 1008.3
20260905133024 19 360 11.3 0.0 0.00 0.00 0.00 87 1008.3
20260905132527 19 360 9.7 0.0 0.00 0.00 0.00 88 1008.2
20260905132025 19 360 8.0 0.0 0.00 0.00 0.00 88 1008.1
20260905131523 18 360 6.4 0.0 0.00 0.00 0.00 89 1008.2
20260905131024 18 360 6.4 0.0 0.00 0.00 0.00 89 1008.3
20260905130522 18 360 8.0 0.0 0.00 0.00 0.00 90 1008.1
20260905130022 18 360 8.0 0.0 0.00 0.00 0.00 90 1008.0
20260905125521 18 360 8.0 0.0 0.00 0.00 0.00 90 1008.1
20260905125021 18 360 8.0 0.0 0.00 0.00 0.00 90 1008.0
20260905124019 18 360 9.7 0.0 0.00 0.00 0.00 90 1008.0
20260905123518 18 360 9.7 0.0 0.00 0.00 0.00 90 1007.8
20260905123018 18 360 8.0 0.0 0.00 0.00 0.00 90 1007.7
20260905122517 18 360 8.0 0.0 0.00 0.00 0.00 90 1007.6
20260905122015 18 360 8.0 0.0 0.00 0.00 0.00 90 1007.5
20260905121515 18 360 8.0 0.0 0.00 0.00 0.00 90 1007.4
20260905121016 18 360 8.0 0.0 0.00 0.00 0.00 89 1007.3
20260905120514 18 360 9.7 0.0 0.00 0.00 0.00 89 1007.2
20260905120012 18 360 9.7 0.0 0.00 0.00 0.00 89 1006.9
20260905115513 18 360 9.7 0.0 0.00 0.00 0.00 89 1006.9
20260905115011 18 360 9.7 0.0 0.00 0.00 0.00 89 1006.9
20260905114010 18 360 11.3 0.0 0.00 0.00 0.00 88 1006.6
20260905113510 18 360 11.3 0.0 0.00 0.00 0.00 88 1006.5
20260905113009 18 360 11.3 0.0 0.00 0.00 0.00 88 1006.5
20260905112510 18 360 11.3 0.0 0.00 0.00 0.00 87 1006.3
20260905112007 18 360 9.7 0.0 0.00 0.00 0.00 87 1006.3
20260905111507 18 360 9.7 0.0 0.00 0.00 0.00 87 1006.2
20260905111005 19 360 9.7 0.0 0.00 0.00 0.00 87 1006.1
20260905110503 19 360 9.7 0.0 0.00 0.00 0.00 86 1006.1
20260905110003 19 360 11.3 0.0 0.00 0.00 0.00 86 1005.8
20260905105503 19 360 11.3 0.0 0.00 0.00 0.00 86 1005.8
20260905105002 19 360 9.7 0.0 0.00 0.00 0.00 85 1005.7
20260905104102 19 360 9.7 0.0 0.00 0.00 0.00 85 1005.7
20260905103601 19 360 11.3 0.0 0.00 0.00 0.00 85 1005.7
20260905103059 20 360 11.3 0.0 0.00 0.00 0.00 84 1005.6
20260905102557 20 360 11.3 0.0 0.00 0.00 0.00 84 1005.6
20260905102058 20 360 11.3 0.0 0.00 0.00 0.00 84 1005.6
20260905101557 20 360 11.3 0.0 0.00 0.00 0.00 84 1005.4
20260905101056 20 360 9.7 0.0 0.00 0.00 0.00 83 1005.5
20260905100556 20 360 11.3 0.0 0.00 0.00 0.00 83 1005.3
20260905100055 20 360 11.3 0.0 0.00 0.00 0.00 83 1005.4
20260905095554 20 360 11.3 0.0 0.00 0.00 0.00 83 1005.4
20260905095054 20 360 11.3 0.0 0.00 0.00 0.00 83 1005.4
20260905094654 20 360 12.9 0.0 0.00 0.00 0.00 83 1005.2
20260905094056 20 360 11.3 0.0 0.00 0.00 0.00 83 1005.1
20260905093554 20 360 12.9 0.0 0.00 0.00 0.00 83 1005.2
20260905093054 20 360 12.9 0.0 0.00 0.00 0.00 82 1005.1
20260905092555 20 360 12.9 0.0 0.00 0.00 0.00 82 1005.2
20260905092052 20 360 12.9 0.0 0.00 0.00 0.00 82 1005.2
20260905091617 20 360 11.3 0.0 0.00 0.00 0.00 82 1005.2
20260905091050 20 360 11.3 0.0 0.00 0.00 0.00 81 1005.1
20260905090549 20 360 11.3 0.0 0.00 0.00 0.00 81 1005.1
20260905090106 20 360 11.3 0.0 0.00 0.00 0.00 81 1005.1
20260905085548 20 360 11.3 0.0 0.00 0.00 0.00 81 1005.1
20260905085049 20 360 11.3 0.0 0.00 0.00 0.00 81 1005.0
20260905084647 20 360 11.3 0.0 0.00 0.00 0.00 80 1004.9
20260905084047 20 360 11.3 0.0 0.00 0.00 0.00 80 1005.0
20260905083546 20 360 11.3 0.0 0.00 0.00 0.00 80 1005.1
20260905083046 20 360 11.3 0.0 0.00 0.00 0.00 79 1005.0
20260905082545 20 360 12.9 0.0 0.00 0.00 0.00 79 1005.0
20260905082044 21 360 12.9 0.0 0.00 0.00 0.00 78 1005.0
20260905081543 21 360 11.3 0.0 0.00 0.00 0.00 78 1005.0
20260905081043 20 360 9.7 0.0 0.00 0.00 0.00 78 1005.1
20260905080545 20 360 9.7 0.0 0.00 0.00 0.00 78 1005.2
20260905080049 20 360 8.0 0.0 0.00 0.00 0.00 77 1005.4
20260905075539 21 360 8.0 0.0 0.00 0.00 0.00 76 1005.3
20260905075038 21 360 8.0 0.0 0.00 0.00 0.00 76 1005.2
20260905074638 21 360 8.0 0.0 0.00 0.00 0.00 74 1005.1
20260905074037 21 360 9.7 0.0 0.00 0.00 0.00 74 1005.2
20260905073536 21 360 9.7 0.0 0.00 0.00 0.00 73 1005.2
20260905073035 21 360 9.7 0.0 0.00 0.00 0.00 73 1005.1
20260905072534 21 360 9.7 0.0 0.00 0.00 0.00 73 1005.1
20260905072035 21 360 9.7 0.0 0.00 0.00 0.00 72 1005.2
20260905071535 21 360 9.7 0.0 0.00 0.00 0.00 72 1005.1
20260905071034 22 360 9.7 0.0 0.00 0.00 0.00 71 1005.1
20260905070534 22 360 11.3 0.0 0.00 0.00 0.00 70 1005.1
20260905070034 22 360 11.3 0.0 0.00 0.00 0.00 70 1005.2
20260905065538 22 360 9.7 0.0 0.00 0.00 0.00 70 1005.2
20260905065034 22 360 8.0 0.0 0.00 0.00 0.00 70 1005.2
20260905064634 22 360 8.0 0.0 0.00 0.00 0.00 69 1005.3
20260905064037 22 360 8.0 0.0 0.00 0.00 0.00 69 1005.4
20260905063535 22 360 6.4 0.0 0.00 0.00 0.00 68 1005.3
20260905063035 22 360 8.0 0.0 0.00 0.00 0.00 67 1005.2
20260905062534 22 360 8.0 0.0 0.00 0.00 0.00 66 1005.2
20260905062034 22 360 8.0 0.0 0.00 0.00 0.00 66 1005.2
20260905061545 22 360 8.0 0.0 0.00 0.00 0.00 65 1005.1
20260905061034 22 360 8.0 0.0 0.00 0.00 0.00 64 1005.0
20260905060533 22 360 8.0 0.0 0.00 0.00 0.00 64 1005.1
20260905060034 23 360 8.0 0.0 0.00 0.00 0.00 64 1005.0
20260905055534 23 360 9.7 0.0 0.00 0.00 0.00 63 1005.0
20260905055034 23 360 9.7 0.0 0.00 0.00 0.00 63 1004.9
20260905054634 22 360 9.7 0.0 0.00 0.00 0.00 63 1004.9
20260905054033 22 360 9.7 0.0 0.00 0.00 0.00 63 1004.9
20260905053535 22 360 9.7 0.0 0.00 0.00 0.00 62 1004.9
20260905053033 23 360 9.7 0.0 0.00 0.00 0.00 61 1004.9
20260905052536 23 360 8.0 0.0 0.00 0.00 0.00 60 1004.9
20260905052034 23 360 8.0 0.0 0.00 0.00 0.00 60 1005.0
20260905051538 23 360 8.0 0.0 0.00 0.00 0.00 58 1005.0
20260905051032 23 360 8.0 0.0 0.00 0.00 0.00 58 1005.1
20260905050532 24 360 9.7 0.0 0.00 0.00 0.00 57 1005.0
20260905050035 24 360 9.7 0.0 0.00 0.00 0.00 56 1005.0
20260905045533 24 360 11.3 0.0 0.00 0.00 0.00 56 1005.0
20260905045032 25 360 14.5 0.0 0.00 0.00 0.00 55 1005.0
20260905044633 25 360 14.5 0.0 0.00 0.00 0.00 55 1005.0
20260905044032 25 360 16.1 0.0 0.00 0.00 0.00 55 1004.9
20260905043532 25 95 16.1 0.0 0.00 0.00 0.00 55 1004.9
20260905043032 25 98 16.1 0.0 0.00 0.00 0.00 54 1004.9
20260905042533 25 98 16.1 0.0 0.00 0.00 0.00 54 1004.9
20260905042032 25 103 16.1 0.0 0.00 0.00 0.00 53 1004.9
20260905041532 25 107 19.3 0.0 0.00 0.00 0.00 53 1004.8
20260905041033 25 98 17.7 0.0 0.00 0.00 0.00 52 1004.7
20260905040631 25 86 16.1 0.0 0.00 0.00 0.00 52 1004.8
20260905040032 26 360 16.1 0.0 0.00 0.00 0.00 52 1004.8
20260905035530 26 360 16.1 0.0 0.00 0.00 0.00 52 1004.9
20260905035030 26 360 14.5 0.0 0.00 0.00 0.00 51 1004.9
20260905034631 26 360 14.5 0.0 0.00 0.00 0.00 51 1005.0
20260905034034 26 360 14.5 0.0 0.00 0.00 0.00 52 1005.0
20260905033530 26 360 14.5 0.0 0.00 0.00 0.00 52 1005.1
20260905033033 26 360 14.5 0.0 0.00 0.00 0.00 52 1005.0
20260905032531 26 360 14.5 0.0 0.00 0.00 0.00 52 1005.1
20260905032030 26 360 14.5 0.0 0.00 0.00 0.00 53 1005.1
20260905031531 26 360 14.5 0.0 0.00 0.00 0.00 53 1005.1
20260905031031 26 360 12.9 0.0 0.00 0.00 0.00 53 1005.2
20260905030530 26 360 11.3 0.0 0.00 0.00 0.00 53 1005.2
20260905030037 26 360 11.3 0.0 0.00 0.00 0.00 53 1005.3
20260905025530 27 360 12.9 0.0 0.00 0.00 0.00 52 1005.1
20260905025030 27 360 12.9 0.0 0.00 0.00 0.00 51 1005.0
20260905024630 27 360 11.3 0.0 0.00 0.00 0.00 52 1005.1
20260905024031 27 360 11.3 0.0 0.00 0.00 0.00 51 1005.0
20260905023532 28 360 12.9 0.0 0.00 0.00 0.00 50 1005.1
20260905023033 28 360 14.5 0.0 0.00 0.00 0.00 50 1005.0
20260905022531 28 360 12.9 0.0 0.00 0.00 0.00 51 1005.0
20260905022030 28 360 11.3 0.0 0.00 0.00 0.00 52 1005.0
20260905021530 28 360 12.9 0.0 0.00 0.00 0.00 52 1004.9
20260905021030 28 360 12.9 0.0 0.00 0.00 0.00 52 1004.8
20260905020529 28 360 12.9 0.0 0.00 0.00 0.00 52 1004.8
20260905020036 27 360 11.3 0.0 0.00 0.00 0.00 54 1004.8
20260905015531 27 360 11.3 0.0 0.00 0.00 0.00 54 1004.5
20260905015030 27 360 8.0 0.0 0.00 0.00 0.00 54 1004.5
20260905014629 27 360 8.0 0.0 0.00 0.00 0.00 52 1004.5
20260905014030 27 360 8.0 0.0 0.00 0.00 0.00 52 1004.5
20260905013529 28 360 9.7 0.0 0.00 0.00 0.00 51 1004.4
20260905013031 28 360 8.0 0.0 0.00 0.00 0.00 51 1004.4
20260905012529 28 360 8.0 0.0 0.00 0.00 0.00 50 1004.3
20260905012029 28 360 8.0 0.0 0.00 0.00 0.00 49 1004.4
20260905011528 29 360 8.0 0.0 0.00 0.00 0.00 48 1004.3
20260905011028 29 360 8.0 0.0 0.00 0.00 0.00 47 1004.3
20260905010528 30 360 8.0 0.0 0.00 0.00 0.00 46 1004.3
20260905010027 30 360 8.0 0.0 0.00 0.00 0.00 45 1004.3
20260905005527 30 360 8.0 0.0 0.00 0.00 0.00 44 1004.2
20260905005028 31 86 8.0 0.0 0.00 0.00 0.00 43 1004.2
20260905004626 31 90 8.0 0.0 0.00 0.00 0.00 41 1004.2
20260905004025 31 89 8.0 0.0 0.00 0.00 0.00 41 1004.2
20260905003527 32 86 8.0 0.0 0.00 0.00 0.00 40 1004.0
20260905003031 32 360 9.7 0.0 0.00 0.00 0.00 38 1004.0
20260905002524 32 81 11.3 0.0 0.00 0.00 0.00 37 1004.1
20260905002025 32 81 9.7 0.0 0.00 0.00 0.00 36 1004.0
20260905001544 32 100 9.7 0.0 0.00 0.00 0.00 36 1004.2
20260905001028 32 94 9.7 0.0 0.00 0.00 0.00 36 1004.1
20260905000526 33 86 9.7 0.0 0.00 0.00 0.00 36 1004.2
20260905000024 33 111 9.7 0.0 0.00 0.00 0.00 34 1004.2
20260904235524 33 121 11.3 0.0 0.00 0.00 0.00 34 1004.2
20260904235026 33 93 11.3 0.0 0.00 0.00 0.00 33 1004.3
20260904234624 33 119 9.7 0.0 0.00 0.00 0.00 34 1004.4
20260904234023 33 110 11.3 0.0 0.00 0.00 0.00 33 1004.4
20260904233523 33 98 11.3 0.0 0.00 0.00 0.00 33 1004.3
20260904233038 33 109 12.9 0.0 0.00 0.00 0.00 34 1004.3
20260904232524 33 360 12.9 0.0 0.00 0.00 0.00 33 1004.3
20260904232022 33 134 12.9 0.0 0.00 0.00 0.00 33 1004.3
20260904231530 33 111 12.9 0.0 0.00 0.00 0.00 32 1004.4
20260904231021 33 140 16.1 0.0 0.00 0.00 0.00 33 1004.4
20260904230521 33 360 14.5 0.0 0.00 0.00 0.00 33 1004.5
20260904230021 34 141 14.5 0.0 0.00 0.00 0.00 33 1004.5
20260904225523 34 360 16.1 0.0 0.00 0.00 0.00 33 1004.5
20260904225020 34 360 17.7 0.0 0.00 0.00 0.00 34 1004.5
20260904224620 33 124 17.7 0.0 0.00 0.00 0.00 35 1004.4
20260904224020 33 127 16.1 0.0 0.00 0.00 0.00 35 1004.5
20260904223521 33 360 16.1 0.0 0.00 0.00 0.00 35 1004.5
20260904223020 33 360 16.1 0.0 0.00 0.00 0.00 35 1004.5
20260904222520 33 360 17.7 0.0 0.00 0.00 0.00 35 1004.5
20260904222018 33 360 17.7 0.0 0.00 0.00 0.00 34 1004.6
20260904221518 33 360 17.7 0.0 0.00 0.00 0.00 35 1004.6
20260904221017 33 360 17.7 0.0 0.00 0.00 0.00 35 1004.7
20260904220517 33 360 17.7 0.0 0.00 0.00 0.00 35 1004.7
20260904220017 33 360 19.3 0.0 0.00 0.00 0.00 35 1004.8
20260904215517 33 360 19.3 0.0 0.00 0.00 0.00 35 1004.9
20260904215016 33 360 19.3 0.0 0.00 0.00 0.00 35 1004.8
20260904214615 33 360 19.3 0.0 0.00 0.00 0.00 36 1004.9
20260904214015 33 360 17.7 0.0 0.00 0.00 0.00 36 1004.9
20260904213516 33 360 17.7 0.0 0.00 0.00 0.00 36 1004.9
20260904213022 33 360 19.3 0.0 0.00 0.00 0.00 36 1004.9
20260904212513 33 360 20.9 0.0 0.00 0.00 0.00 36 1005.0
20260904212012 33 360 20.9 0.0 0.00 0.00 0.00 37 1005.0
20260904211513 33 360 22.5 0.0 0.00 0.00 0.00 37 1005.0
20260904211013 33 360 22.5 0.0 0.00 0.00 0.00 38 1004.9
20260904210511 32 360 24.1 0.0 0.00 0.00 0.00 38 1005.0
20260904210010 32 360 24.1 0.0 0.00 0.00 0.00 37 1005.0
20260904205510 32 360 24.1 0.0 0.00 0.00 0.00 37 1005.0
20260904205010 32 360 22.5 0.0 0.00 0.00 0.00 36 1005.0
20260904204609 32 360 22.5 0.0 0.00 0.00 0.00 37 1005.1
20260904204009 32 360 24.1 0.0 0.00 0.00 0.00 37 1005.1
20260904203508 32 360 25.7 0.0 0.00 0.00 0.00 39 1005.1
20260904203008 32 360 25.7 0.0 0.00 0.00 0.00 39 1005.2
20260904202507 32 360 25.7 0.0 0.00 0.00 0.00 38 1005.2
20260904202007 32 360 25.7 0.0 0.00 0.00 0.00 38 1005.2
20260904201506 32 360 25.7 0.0 0.00 0.00 0.00 38 1005.3
20260904201006 32 360 24.1 0.0 0.00 0.00 0.00 38 1005.3
20260904200510 32 360 25.7 0.0 0.00 0.00 0.00 37 1005.3
20260904200006 32 360 25.7 0.0 0.00 0.00 0.00 37 1005.5
20260904195505 32 360 24.1 0.0 0.00 0.00 0.00 37 1005.4
20260904195003 32 360 24.1 0.0 0.00 0.00 0.00 38 1005.6
20260904194603 31 360 25.7 0.0 0.00 0.00 0.00 38 1005.7
20260904194003 31 360 25.7 0.0 0.00 0.00 0.00 38 1005.7
20260904193500 31 360 27.4 0.0 0.00 0.00 0.00 37 1005.9
20260904193123 31 360 27.4 0.0 0.00 0.00 0.00 38 1006.1
20260904192559 31 360 29.0 0.0 0.00 0.00 0.00 37 1006.1
20260904192100 31 360 29.0 0.0 0.00 0.00 0.00 36 1006.1
20260904191559 31 360 30.6 0.0 0.00 0.00 0.00 35 1006.2
20260904191058 31 360 30.6 0.0 0.00 0.00 0.00 36 1006.2
20260904190558 31 360 29.0 0.0 0.00 0.00 0.00 34 1006.4
20260904190056 30 360 24.1 0.0 0.00 0.00 0.00 34 1006.4
20260904185556 30 360 24.1 0.0 0.00 0.00 0.00 42 1006.4
20260904185056 30 360 24.1 0.0 0.00 0.00 0.00 42 1006.5
20260904184555 30 360 25.7 0.0 0.00 0.00 0.00 40 1006.6
20260904184056 30 360 25.7 0.0 0.00 0.00 0.00 41 1006.6
20260904183554 30 360 27.4 0.0 0.00 0.00 0.00 40 1006.7
20260904183054 30 360 29.0 0.0 0.00 0.00 0.00 40 1006.8
20260904182553 30 360 27.4 0.0 0.00 0.00 0.00 39 1006.9
20260904182052 30 360 25.7 0.0 0.00 0.00 0.00 41 1006.9
20260904181550 30 360 25.7 0.0 0.00 0.00 0.00 44 1007.1
20260904181049 29 360 27.4 0.0 0.00 0.00 0.00 42 1007.3
20260904180551 28 360 25.7 0.0 0.00 0.00 0.00 48 1007.5
20260904180048 28 101 25.7 0.0 0.00 0.00 0.00 52 1007.5
20260904175545 28 104 25.7 0.0 0.00 0.00 0.00 54 1007.6
20260904175043 27 129 27.4 0.0 0.00 0.00 0.00 56 1007.6
20260904174542 27 127 27.4 0.0 0.00 0.00 0.00 56 1007.8
20260904174042 27 121 27.4 0.0 0.00 0.00 0.00 57 1007.8
20260904173541 27 121 27.4 0.0 0.00 0.00 0.00 58 1008.0
20260904173050 27 128 25.7 0.0 0.00 0.00 0.00 59 1008.0
20260904172540 26 131 24.1 0.0 0.00 0.00 0.00 60 1008.1
20260904172038 26 101 25.7 0.0 0.00 0.00 0.00 62 1008.2
20260904171536 26 125 25.7 0.0 0.00 0.00 0.00 62 1008.4
20260904171039 26 360 24.1 0.0 0.00 0.00 0.00 64 1008.4
20260904170535 26 95 25.7 0.0 0.00 0.00 0.00 65 1008.4
20260904170034 25 124 24.1 0.0 0.00 0.00 0.00 66 1008.4
20260904165533 25 109 24.1 0.0 0.00 0.00 0.00 67 1008.4
20260904165034 25 360 24.1 0.0 0.00 0.00 0.00 69 1008.5
20260904164530 24 110 25.7 0.0 0.00 0.00 0.00 71 1008.5
20260904164028 24 119 25.7 0.0 0.00 0.00 0.00 71 1008.6
20260904163528 23 105 25.7 0.0 0.00 0.00 0.00 72 1008.6
20260904163027 23 119 25.7 0.0 0.00 0.00 0.00 72 1008.7
20260904162530 23 360 25.7 0.0 0.00 0.00 0.00 74 1008.6
20260904162025 23 127 24.1 0.0 0.00 0.00 0.00 76 1008.6
20260904161526 22 119 22.5 0.0 0.00 0.00 0.00 79 1008.6
20260904161022 22 103 19.3 0.0 0.00 0.00 0.00 79 1008.8
20260904160524 22 360 19.3 0.0 0.00 0.00 0.00 81 1008.7
20260904160020 22 360 20.9 0.0 0.00 0.00 0.00 83 1008.8
20260904155518 21 360 19.3 0.0 0.00 0.00 0.00 85 1009.0
20260904155017 21 360 16.1 0.0 0.00 0.00 0.00 88 1008.9
20260904154516 20 360 14.5 0.0 0.00 0.00 0.00 92 1009.0
20260904154016 20 360 16.1 0.0 0.00 0.00 0.00 92 1009.0
20260904153517 20 360 16.1 0.0 0.00 0.00 0.00 93 1009.0
20260904153014 19 360 16.1 0.0 0.00 0.00 0.00 94 1009.1
20260904152512 18 360 14.5 0.0 0.00 0.00 0.00 94 1009.2
20260904152015 18 360 12.9 0.0 0.00 0.00 0.00 95 1009.2
20260904151511 18 360 12.9 0.0 0.00 0.00 0.00 95 1009.1
20260904151010 18 360 14.5 0.0 0.00 0.00 0.00 95 1009.1
20260904150509 18 360 16.1 0.0 0.00 0.00 0.00 96 1009.2
20260904150011 18 360 14.5 0.0 0.00 0.00 0.00 95 1009.2